Location: Unspecified
(51.3762°N, 0.0000°E)
Time: 10:22:18
(UTC+00:00)

O/OREOS (USA 219) - Pass Details

Date: 23 July 2019
Orbit: 621 x 646 km, 72.0° (Epoch: 22 May)

Event Time Altitude Azimuth Distance (km) Brightness Sun altitude
Rises 02:30:59 0° 152° (SSE) 2,940 ? -11.8°
Reaches altitude 10° 02:34:25 10° 125° (SE) 2,032 ? -11.5°
Maximum altitude 02:36:27 13° 98° (E) 1,844 ? -11.3°
Drops below altitude 10° 02:38:29 10° 71° (ENE) 2,033 ? -11.1°
Sets 02:41:56 0° 44° (NE) 2,943 ? -10.8°
